Regional Weather Roundup
Issued by NWS

Home | Current Version | Previous Version | Text Only | Print | Product List | Glossary Off
Versions: 1 2 3 4 5 6 7 8 9 10 11 12 13 14 15 16 17 18 19 20 21 22 23 24 25 26 27 28 29 30 31 32 33 34 35 36 37 38 39 40 41 42 43 44 45 46 47 48 49 50

000
ASUS45 KCYS 251610
RWRWY

WYOMING REGIONAL WEATHER ROUNDUP
NATIONAL WEATHER SERVICE CHEYENNE WY
1000 AM MDT TUE APR 25 2017

NOTE:  "FAIR" INDICATES FEW OR NO CLOUDS BELOW 12,000 FEET
WITH NO SIGNIFICANT WEATHER AND/OR OBSTRUCTIONS TO VISIBILITY.

WYZ001-251700-
YELLOWSTONE NATIONAL PARK

CITY           SKY/WX    TMP DP  RH WIND       PRES   REMARKS
LK YELLOWSTONE   N/A     33  27  78 VRB3      29.74R
W YELLOWSTONE  NOT AVBL

$$
WYZ002>013-054>058-071-098>099-251700-
NORTHERN WYOMING

CITY           SKY/WX    TMP DP  RH WIND       PRES   REMARKS
JACKSON        CLOUDY    37  34  87 S7        29.71R WCI  32
CODY           FLURRIES  34  31  88 NW16      29.77R WCI  24
GREYBULL       CLOUDY    37  28  70 N29G37    29.67R WCI  25
WORLAND        CLOUDY    40  35  83 N25G37    29.66R WCI  29
SHERIDAN       SNOW      32  30  92 N13       29.78R VSB 1/4 WCI  22
BUFFALO        NOT AVBL
GILLETTE       SNOW      27  32 100 N18G26    29.68R WCI  14
HULETT         LGT SNOW  30  27  86 NE15      29.71R WCI  19
NEWCASTLE      LGT RAIN  34  34 100 E6        29.61R WCI  29

$$
WYZ014>020-022>026-101>103-251700-
CENTRAL WYOMING

CITY           SKY/WX    TMP DP  RH WIND       PRES   REMARKS
BIG PINEY      CLOUDY    38  27  64 N5        29.70R WCI  34
PINEDALE       LGT SNOW  32  30  93 NW12      29.71R WCI  23
DUBOIS         CLOUDY    37  27  65 N14       29.65R WCI  29
LANDER         FLURRIES  36  34  92 N14       29.67R WCI  27
RIVERTON       LGT SNOW  35  33  92 N18G28    29.67R FOG     WCI  24
CASPER         FLURRIES  32  28  85 N18G25    29.65R WCI  20
DOUGLAS        FAIR      36  29  75 W26       29.59S WCI  24

$$
WYZ021-027>030-104>119-251700-
SOUTHERN WYOMING

CITY           SKY/WX    TMP DP  RH WIND       PRES   REMARKS
EVANSTON       CLOUDY    33  30  88 NW13      29.75R WCI  24
KEMMERER         N/A     32  30  93 W16       29.74R WCI  21
FORT BRIDGER   CLOUDY    37  33  82 W14       29.77R WCI  29
ROCK SPRINGS   FAIR      41  30  65 W22       29.68F
DIXON            N/A     40  29  66 S13       29.71F WCI  32
RAWLINS        FAIR      40  27  59 W25G32    29.62R WCI  29
SARATOGA       PTSUNNY   37  28  70 W14G26    29.66R WCI  29
LARAMIE        FAIR      38  26  62 W24G33    29.59S WCI  27
CHEYENNE       FAIR      46  23  40 NW17G23   29.60R
TORRINGTON     CLOUDY    50  39  66 NE16      29.54R
PINE BLUFFS    FAIR      50  30  46 W14       29.58R

$$



USA.gov is the U.S. government's official web portal to all federal, state and local government web resources and services.